Regional Weather Roundup
Issued by NWS Little Rock, AR

Home | Current Version | Previous Version | Text Only | Print | Product List | Glossary On
Versions: 1 2 3 4 5 6 7 8 9 10 11 12 13 14 15 16 17 18 19 20 21 22 23 24 25 26 27
000
ASUS44 KLZK 261005
RWRLZK

WEATHER ROUNDUP FOR ARKANSAS
NATIONAL WEATHER SERVICE LITTLE ROCK AR
500 AM CDT TUE JUL 26 2016

NOTE: "FAIR" INDICATES FEW OR NO CLOUDS BELOW 12,000 FEET WITH NO
SIGNIFICANT WEATHER AND/OR OBSTRUCTIONS TO VISIBILITY.

ARZ001-003-010-029-261100-
NORTHWEST ARKANSAS

CITY           SKY/WX    TMP DP  RH WIND       PRES   REMARKS
FAYETTEVILLE   MOCLDY    72  72 100 CALM      30.01S
FORT SMITH     CLOUDY    76  70  82 SE5       29.97R
HARRISON       CLOUDY    73  72  96 CALM      30.03S
BENTONVILLE    PTCLDY    73  70  88 SE5       30.02S
ROGERS         CLOUDY    74  72  93 E3        30.03R
SILOAM SPGS    PTCLDY    73  64  73 CALM      30.03R
HIGHFILL       PTCLDY    75  73  93 CALM      30.01S
$$

ARZ004-005-016-261100-
NORTH CENTRAL ARKANSAS

CITY           SKY/WX    TMP DP  RH WIND       PRES   REMARKS
BATESVILLE     PTCLDY    73  72  94 NW5       30.00R
FLIPPIN        CLOUDY    73  70  88 CALM      29.98S
MTN HOME       CLOUDY    73  72  96 CALM      30.01R
$$

ARZ040-041-261100-
WEST CENTRAL ARKANSAS

CITY           SKY/WX    TMP DP  RH WIND       PRES   REMARKS
MENA           PTCLDY    73  73 100 CALM      30.00S
MOUNT IDA      FOG       74  74 100 CALM      29.96S VSB 1
$$

ARZ009-017-025-026-028-261100-
NORTHEAST ARKANSAS

CITY           SKY/WX    TMP DP  RH WIND       PRES   REMARKS
CORNING          N/A     75  75 100 E5        29.99F
JONESBORO      CLEAR     77  75  93 NE3       29.98S
NEWPORT        FOG       76  76 100 N3        29.99S VSB 1/2
WALNUT RIDGE   PTCLDY    75  73  94 N5        29.97S
BLYTHEVILLE    CLEAR     76  74  93 E5        29.98F
$$

ARZ022-023-033-042-044-261100-
CENTRAL ARKANSAS

CITY           SKY/WX    TMP DP  RH WIND       PRES   REMARKS
LITTLE ROCK    CLEAR     81  74  79 N3        29.97R HX  86
N LITTLE ROCK    N/A     76  73  91 CALM      29.95R
JACKSONVILLE   CLEAR     76  75  99 CALM      29.97R
SEARCY         CLEAR     76  75  97 CALM      29.99R
HOT SPRINGS    FOG       77  76  96 CALM      29.98S VSB 1/4
RUSSELLVILLE   CLOUDY    74  74 100 CALM      29.97R
$$

ARZ036-261100-
EAST ARKANSAS

CITY           SKY/WX    TMP DP  RH WIND       PRES   REMARKS
WEST MEMPHIS   CLEAR     76  74  93 CALM      29.96S
$$

ARZ050-053-066-070-073-261100-
SOUTHWEST ARKANSAS

CITY           SKY/WX    TMP DP  RH WIND       PRES   REMARKS
CAMDEN         PTCLDY    73  72  94 CALM      29.96R FOG
TEXARKANA      CLEAR     76  73  91 CALM      29.96S
EL DORADO      CLEAR     75  74  96 CALM      29.96R
DE QUEEN       PTCLDY    76  75  97 CALM      29.94R
$$

ARZ056-057-069-261100-
SOUTHEAST ARKANSAS

CITY           SKY/WX    TMP DP  RH WIND       PRES   REMARKS
PINE BLUFF     PTCLDY    76  75  97 E6        29.96S
STUTTGART      PTCLDY    79  73  83 SE5       29.98R
MONTICELLO     CLEAR     78  74  87 CALM      29.97R

$$






USA.gov is the U.S. government's official web portal to all federal, state and local government web resources and services.